Location: Cabri�res
(43.7840°N, 5.4986°E)
Time: 04:09:54
(UTC+00:00)

COSMOS 2455 - Pass Details

Date: 09 April 2020
Orbit: 899 x 910 km, 67.1° (Epoch: 02 June)

Event Time Altitude Azimuth Distance (km) Brightness Sun altitude
Rises 20:02:03 0° 327° (NNW) 3,545 7.1 -18.7°
Reaches altitude 10° 20:04:34 10° 325° (NW) 2,601 6.3 -19.1°
Maximum altitude 20:10:34 69° 243° (WSW) 974 3.0 -20.0°
Enters shadow 20:13:54 27° 167° (SSE) 1,665 3.8 -20.5°
